User: anonymous
Location: Caltech
(34.1382°N, 118.1253°W)
Time: 16:27:33
(UTC-07:00)
Language:

NOSS 3-2 (A) - Orbit

View from above orbital plane
View from above orbital plane
View from above satellite
View from above satellite

Ground track
Ground track

The orbit data is extracted from the following two-line orbital elements,

1 28095U 03054A   14250.13957841 0.00000030  00000-0  46947-4 0    06
2 28095  63.4290  19.4836 0217000 357.8074   2.1926 13.41288484    08
Epoch (UTC): 07 September 2014 03:20:59
Eccentricity: 0.0217000
inclination: 63.4290°
perigee height: 942 km
apogee height: 1267 km
right ascension of ascending node: 19.4836°
argument of perigee: 357.8074°
revolutions per day: 13.41288484
mean anomaly at epoch: 2.1926°
orbit number at epoch: 0

The dashed part of the orbit path shows where the satellite is in the earth's shadow,  

DLR